JPSS-2 (54234 NORAD) Tracking and Keplerian Element Data

This shows tracking and keplerian element data for the satellite.

Feedback or suggestion? Click here.




ElementValue
Catalog54234
NameJPSS-2
Epoch Orbit146
Epoch Day324.71320609
Epoch Year2022
RAAN260.9947
Inclination98.6972
Eccentricity0.0023813
Argument of Perigee210.5853
Mean Anonmoly149.4232
Mean Motion14.2409458
Decay Rate-1.966E-05
L11 54234U 22150A 22324.71320609 -.00001966 00000+0 -83334-3 0 9996
L22 54234 98.6972 260.9947 0023813 210.5853 149.4232 14.24094580 1462



Live tracking and technical data element details for JPSS-2 (NORAD 54234). JPSS-2 can be tracked NOW for your location showing map with azimuth and elevation plus other details from your city location.







IsCatalogInMostPopularTable: catalog: 54234, numindb: 6
Update: records affected: 1



GetName: 54234 JPSS-2

Hit Count: updated at: Sun, 04 Dec 2022 22:15:25 GMT